Back to catalog

STARLINK-2400

AliveCommunicationsVLEO
NORAD 47817·PAYLOAD·🇺🇸 United States

Launched Mar 11, 2021 from Cape Canaveral Space Force Station

Loading…

Next Passes (next 24 hours)

TLE

FreshSource: CelesTrak SupGP

Epoch: Sep 15, 2026, 01:34 UTC

1 47817C 21018AG  26258.06576389  .00002041  00000+0  65613-4 0  2585
2 47817  53.1574  81.8162 0001085  80.3862 266.3122 15.31703557    11

Track STARLINK-2400 in real time with AllMySat

Download on the App Store